Wind_Speed
4 2 1 2 4 4 3 3 3 3 3 3 3 4 4 5 5 4 5 5 5 5 4 3 4 3 3 3 3 3 2 3 3 2 2 1 1 1 1 2 1 1 1
4 3 2 3 5 5 4 3 3 3 3 3 3 3 4 4 5 5 5 5 6 5 4 3 3 4 3 3 2 3 3 2 2 2 2 2 2 2 2 2 1 1 1
5 4 3 3 5 4 4 3 3 3 3 3 3 3 4 4 4 5 5 5 6 6 5 4 4 3 3 2 2 3 2 2 3 2 2 2 2 2 2 3 2 1 1
6 5 4 4 4 4 4 4 4 3 3 2 3 4 4 3 3 3 4 5 5 5 5 4 4 3 3 3 3 3 3 3 4 3 3 2 2 2 2 2 2 1 0
6 5 4 4 4 4 4 4 4 4 3 3 4 4 4 4 4 3 4 4 5 5 5 4 4 3 3 3 3 4 4 3 3 3 2 2 2 2 2 1 1 1 0
7 7 5 5 4 3 4 3 3 3 3 3 3 3 4 4 4 4 4 5 6 5 5 4 4 4 4 3 4 4 5 4 4 3 3 2 3 2 1 1 1 1 1
8 7 6 5 4 3 3 3 2 2 2 2 2 3 4 4 4 5 5 6 7 6 6 5 5 5 4 4 4 4 4 5 4 4 3 2 2 2 2 1 1 2 2
7 7 6 5 4 3 2 2 1 2 1 2 2 3 4 5 5 5 6 7 8 8 7 6 5 5 4 4 5 5 5 5 4 4 3 3 3 3 3 3 2 3 3
7 7 6 5 4 3 2 1 0 1 1 2 3 3 4 5 6 6 6 7 7 8 8 7 7 6 5 5 5 5 4 4 4 4 4 4 3 3 3 4 4 4 4
9 9 8 6 5 3 2 2 1 1 2 2 3 4 4 5 6 6 6 7 8 8 9 8 8 7 6 5 5 4 4 4 4 4 4 5 4 3 4 5 5 5 4
9 8 8 7 5 4 3 2 1 1 2 2 3 3 4 5 5 5 6 6 7 8 9 8 8 8 7 6 6 5 5 5 4 4 4 5 5 5 5 5 6 5 4
9 8 7 6 6 5 4 3 2 1 1 2 2 3 4 4 4 5 5 6 8 8 9 9 9 9 8 7 7 6 6 5 4 4 5 5 5 5 5 6 6 5 4
9 8 7 7 6 6 5 4 3 2 1 0 2 3 3 4 4 4 5 5 6 7 8 8 9 9 8 7 7 7 6 6 5 5 4 5 5 5 5 6 5 5 5
10 8 7 7 6 6 5 4 3 3 2 1 1 2 3 3 4 4 4 5 6 7 7 8 8 8 8 7 7 7 7 6 5 5 5 5 5 6 6 6 5 5 5
11 9 8 7 6 6 5 4 3 3 3 3 2 1 2 3 4 4 5 6 6 6 7 7 7 8 8 8 8 7 8 7 6 6 6 6 6 6 7 6 6 6 6
10 10 8 7 6 6 5 4 3 3 3 3 2 1 1 2 2 3 5 5 6 6 6 7 8 8 8 9 8 7 7 7 7 6 6 6 6 6 7 7 7 7 7
11 10 8 7 6 5 5 4 3 3 3 3 2 1 1 1 1 2 4 4 4 5 6 7 8 8 8 9 9 8 8 7 7 7 7 7 7 7 8 9 9 9 9
11 10 8 7 6 6 5 4 3 2 2 2 2 1 1 1 2 2 3 3 4 4 5 6 7 7 7 8 9 8 8 7 8 8 8 7 8 8 9 10 10 10 10
11 10 9 8 7 5 5 5 3 2 3 3 3 1 1 0 1 2 3 3 3 4 5 6 6 7 7 7 8 8 7 8 8 8 8 8 8 9 9 9 10 10 10
11 10 9 7 6 5 5 4 3 3 3 3 2 2 2 1 1 2 3 3 3 4 4 5 5 6 7 7 8 8 8 8 7 7 7 8 8 8 8 9 9 9 9
11 10 9 7 7 6 5 4 3 2 2 2 2 2 3 2 1 1 2 3 3 4 5 5 6 6 6 7 7 7 8 8 8 8 8 8 8 9 9 10 9 9 9
11 11 10 8 7 5 5 4 3 2 2 1 1 2 2 2 2 2 2 3 4 4 5 5 6 7 7 8 8 8 8 9 9 9 9 9 9 10 10 10 10 10 11
11 11 9 8 7 6 5 3 3 3 3 2 2 2 3 3 2 3 3 3 4 4 5 6 6 6 7 8 9 9 9 10 10 11 11 11 11 11 12 12 12 12 12
10 10 10 8 7 6 4 4 4 3 3 3 3 3 4 4 3 3 3 4 5 5 6 6 7 7 7 8 10 10 11 11 12 12 13 13 13 12 12 13 13 13 14
10 10 10 9 7 6 4 4 4 4 4 4 4 4 4 4 4 3 4 5 6 6 7 7 8 8 9 9 10 11 12 12 13 13 13 13 13 13 13 13 14 14 14
10 9 10 9 8 6 6 5 5 5 5 5 5 5 5 5 6 6 6 7 7 7 7 7 8 9 10 10 11 12 12 13 13 13 13 13 14 14 14 14 14 14 15
Wind_Direction
34 39 125 132 106 111 119 117 106 111 126 121 135 144 149 158 148 150 159 162 164 162 164 169 176 185 198 196 189 181 174 173 178 172 184 196 177 147 140 136 131 96 168
29 36 94 129 109 117 118 111 107 109 119 115 135 154 160 157 164 165 164 167 176 180 182 182 168 188 186 189 192 198 187 187 192 191 194 178 161 161 151 138 141 94 143
35 41 78 106 105 118 116 115 122 126 129 139 151 161 161 171 180 173 171 175 182 187 192 191 186 181 178 173 178 188 191 190 177 166 155 157 157 148 134 136 144 132 109
40 46 76 104 106 113 119 123 133 130 141 162 171 171 172 180 182 175 179 184 185 182 186 189 189 177 168 157 155 165 171 175 171 168 156 148 143 128 118 123 136 143 108
49 58 76 102 109 108 121 124 128 132 138 166 182 176 181 189 189 186 190 189 185 182 186 190 189 186 185 177 164 173 176 181 175 170 164 163 166 153 139 135 144 189 232
51 64 75 94 104 103 116 124 130 137 150 165 186 188 191 196 205 205 198 199 191 186 188 189 186 192 197 198 185 183 182 180 178 173 170 183 186 186 190 177 199 217 256
47 58 73 81 90 88 106 124 132 142 151 174 187 197 204 206 208 208 199 196 196 199 197 193 195 189 195 197 195 198 191 177 178 176 179 194 201 210 211 200 233 257 262
42 55 61 72 72 73 85 91 122 149 157 190 208 203 214 208 210 209 200 199 202 199 194 194 197 193 195 194 192 196 195 183 191 197 205 210 215 221 227 231 242 266 260
42 42 45 59 60 63 64 50 106 163 167 179 191 195 213 209 206 200 198 199 199 197 196 195 196 191 189 188 188 189 191 193 201 212 220 216 222 227 229 238 247 260 259
36 38 42 47 51 52 53 57 75 161 196 198 197 194 204 210 207 201 202 201 200 198 201 201 201 202 202 199 198 203 205 205 209 217 223 223 227 229 233 240 246 252 260
34 37 39 41 39 46 56 49 77 148 205 217 218 209 209 206 201 197 203 204 203 200 203 203 203 205 209 207 212 217 215 216 219 228 226 231 233 239 239 244 245 250 258
32 40 40 42 40 42 53 51 58 78 159 211 218 223 216 215 202 193 202 210 208 206 205 204 204 209 210 211 216 216 216 218 225 230 229 234 236 240 242 241 244 254 263
33 42 44 44 42 39 46 55 66 70 66 208 216 225 223 221 202 191 198 210 205 198 201 207 210 212 211 215 218 218 218 223 227 222 225 232 238 240 242 244 253 252 262
38 41 41 39 36 33 41 55 64 66 66 80 194 216 209 212 212 205 209 208 201 199 206 206 208 210 211 216 218 217 212 218 221 224 222 231 239 237 237 244 250 253 258
35 38 31 27 28 29 38 52 58 60 67 75 90 151 182 203 221 221 208 207 204 205 208 207 206 211 215 219 220 218 216 221 223 226 225 231 238 239 239 244 250 255 261
27 27 23 28 32 34 39 45 49 53 61 65 78 150 180 214 236 209 205 207 212 216 218 218 219 218 221 220 219 219 223 228 233 234 233 233 240 243 245 249 253 257 265
18 21 25 32 38 39 38 35 40 52 58 50 59 109 169 211 190 188 200 214 220 222 225 225 224 225 227 225 223 222 225 231 235 237 239 239 242 245 253 256 257 259 264
17 21 26 28 34 37 39 35 34 43 47 43 54 87 135 199 176 182 198 213 216 231 234 231 231 232 230 229 228 225 228 234 239 244 248 249 248 251 259 264 264 261 264
16 18 25 26 28 31 29 27 28 43 54 56 59 71 107 196 187 200 214 219 224 228 231 230 233 233 229 229 228 227 230 236 240 247 252 252 251 253 260 270 270 268 267
15 15 19 22 22 22 22 25 36 58 62 64 68 61 52 57 193 224 229 227 222 225 226 230 232 231 229 226 223 226 229 232 243 253 258 257 258 259 268 271 275 268 266
14 13 10 11 11 12 19 25 42 56 53 61 66 51 34 26 331 263 241 238 231 224 229 236 235 234 233 234 234 238 240 246 250 255 258 261 262 262 267 268 271 267 264
9 11 12 11 12 10 16 25 29 42 30 23 40 32 6 357 344 316 283 264 246 238 240 241 237 245 243 244 245 247 251 254 255 255 261 263 263 263 265 265 266 266 264
1 2 6 6 7 3 360 8 17 9 5 0 348 352 339 335 313 290 285 269 248 242 245 246 251 253 251 250 248 251 253 253 257 258 262 264 264 262 265 266 267 267 268
350 352 356 357 353 355 358 354 344 345 343 337 321 325 325 322 322 293 292 275 261 260 258 260 257 258 257 255 255 254 255 257 258 259 263 265 267 267 271 268 268 269 270
345 346 350 351 347 348 350 348 343 333 323 319 314 312 315 305 309 294 295 290 274 269 268 268 266 267 264 261 259 258 258 260 260 259 260 263 266 270 271 270 271 272 271
344 345 345 348 346 338 335 333 337 335 326 318 310 302 300 303 307 297 288 287 279 272 269 269 270 268 265 263 263 263 262 263 265 263 262 263 265 267 269 270 274 274 274
Height
5876 5875 5874 5874 5875 5876 5876 5877 5877 5877 5878 5878 5879 5879 5880 5881 5882 5884 5885 5885 5887 5888 5888 5889 5890 5891 5892 5893 5894 5895 5895 5896 5896 5897 5898 5898 5899 5899 5899 5899 5900 5900 5900
5876 5875 5874 5874 5875 5876 5876 5877 5878 5877 5878 5878 5879 5879 5880 5881 5882 5884 5885 5885 5886 5887 5888 5890 5891 5892 5893 5893 5894 5895 5895 5896 5897 5897 5898 5898 5899 5899 5899 5899 5900 5900 5901
5876 5875 5875 5875 5876 5876 5877 5877 5878 5878 5878 5878 5878 5879 5880 5881 5882 5883 5884 5885 5886 5887 5888 5890 5891 5892 5893 5893 5894 5895 5896 5896 5897 5898 5898 5899 5899 5899 5899 5899 5900 5900 5901
5877 5876 5876 5876 5876 5876 5877 5877 5877 5878 5878 5878 5879 5879 5880 5881 5882 5883 5884 5885 5886 5887 5888 5889 5891 5892 5893 5894 5894 5895 5896 5897 5897 5898 5899 5899 5899 5899 5900 5900 5900 5901 5901
5877 5877 5876 5876 5876 5876 5877 5877 5877 5877 5877 5878 5878 5879 5880 5880 5881 5882 5883 5884 5885 5886 5888 5889 5890 5892 5893 5894 5894 5895 5896 5897 5897 5898 5899 5899 5900 5900 5900 5900 5901 5901 5901
5878 5877 5877 5876 5876 5876 5876 5877 5877 5877 5877 5878 5878 5878 5879 5880 5880 5881 5882 5883 5884 5886 5887 5889 5890 5891 5893 5894 5894 5895 5896 5897 5898 5898 5899 5900 5900 5900 5900 5901 5901 5901 5901
5879 5878 5877 5877 5876 5876 5876 5876 5876 5877 5877 5877 5877 5878 5878 5878 5879 5880 5880 5881 5883 5885 5887 5888 5890 5891 5892 5893 5894 5895 5896 5897 5898 5898 5899 5900 5900 5900 5901 5901 5901 5901 5901
5879 5878 5877 5877 5877 5876 5876 5876 5876 5876 5877 5877 5877 5877 5877 5877 5877 5878 5879 5880 5882 5884 5886 5888 5889 5891 5892 5893 5894 5895 5896 5896 5897 5898 5899 5899 5900 5900 5901 5901 5901 5901 5901
5879 5878 5877 5877 5877 5876 5876 5876 5876 5876 5876 5876 5876 5876 5876 5876 5877 5877 5878 5880 5881 5883 5885 5887 5889 5890 5892 5893 5894 5894 5895 5896 5897 5898 5898 5899 5899 5900 5900 5901 5901 5901 5901
5879 5878 5878 5877 5877 5876 5876 5876 5876 5876 5876 5876 5876 5876 5875 5875 5876 5877 5878 5879 5880 5882 5884 5886 5888 5890 5891 5892 5893 5894 5895 5896 5896 5897 5898 5898 5899 5899 5900 5900 5900 5900 5901
5879 5878 5878 5877 5877 5876 5876 5875 5875 5875 5875 5875 5875 5875 5875 5875 5875 5876 5877 5878 5879 5881 5883 5885 5887 5889 5890 5891 5892 5893 5894 5895 5896 5896 5897 5898 5898 5899 5899 5899 5900 5900 5900
5879 5878 5878 5878 5877 5876 5876 5875 5875 5875 5875 5875 5875 5874 5874 5875 5875 5875 5876 5877 5878 5880 5882 5884 5886 5888 5889 5890 5892 5892 5893 5894 5895 5896 5896 5897 5897 5898 5898 5899 5899 5899 5899
5880 5879 5878 5878 5877 5876 5876 5875 5875 5875 5874 5874 5874 5874 5874 5874 5875 5875 5875 5876 5877 5879 5881 5883 5885 5886 5888 5889 5890 5891 5892 5893 5894 5894 5895 5896 5896 5897 5897 5898 5898 5898 5898
5881 5880 5879 5878 5878 5877 5876 5875 5875 5874 5874 5874 5874 5874 5874 5874 5874 5875 5876 5876 5877 5879 5880 5882 5883 5885 5887 5888 5889 5890 5891 5892 5893 5893 5894 5895 5895 5896 5896 5897 5897 5897 5897
5882 5881 5880 5879 5878 5877 5876 5875 5875 5874 5874 5874 5874 5874 5873 5874 5874 5875 5876 5876 5877 5879 5880 5881 5882 5884 5885 5887 5888 5889 5890 5891 5892 5892 5893 5894 5894 5895 5894 5895 5895 5895 5895
5884 5882 5881 5879 5878 5877 5876 5875 5875 5874 5874 5874 5873 5873 5873 5874 5874 5874 5875 5876 5877 5878 5879 5880 5882 5883 5884 5886 5887 5888 5889 5889 5890 5891 5892 5892 5893 5894 5893 5894 5894 5894 5894
5885 5883 5882 5880 5879 5878 5877 5876 5875 5874 5874 5874 5874 5874 5874 5874 5874 5875 5875 5876 5877 5878 5879 5880 5881 5882 5883 5884 5885 5886 5887 5888 5889 5890 5891 5891 5892 5892 5892 5892 5892 5892 5892
5885 5884 5882 5881 5879 5878 5877 5876 5875 5875 5875 5874 5874 5874 5874 5874 5874 5875 5876 5876 5877 5877 5878 5879 5880 5880 5882 5883 5884 5885 5886 5887 5888 5889 5889 5890 5890 5890 5890 5890 5890 5890 5890
5886 5884 5882 5881 5879 5878 5877 5876 5875 5875 5875 5875 5875 5875 5875 5874 5875 5875 5876 5876 5876 5877 5877 5878 5879 5879 5880 5881 5883 5884 5885 5886 5886 5887 5888 5888 5888 5888 5888 5888 5888 5888 5888
5887 5885 5883 5881 5880 5879 5877 5876 5875 5875 5876 5876 5876 5875 5875 5875 5875 5876 5876 5876 5876 5876 5877 5877 5878 5879 5879 5880 5881 5882 5883 5884 5885 5885 5886 5886 5886 5885 5885 5885 5885 5886 5885
5887 5885 5883 5881 5880 5879 5878 5877 5876 5876 5876 5877 5876 5876 5876 5876 5876 5876 5875 5876 5876 5876 5876 5877 5877 5878 5879 5879 5880 5881 5882 5883 5883 5884 5884 5884 5884 5884 5884 5883 5883 5883 5883
5888 5885 5883 5882 5880 5879 5878 5878 5877 5877 5877 5877 5877 5877 5876 5876 5876 5876 5875 5875 5875 5876 5876 5876 5877 5877 5878 5879 5880 5880 5881 5882 5881 5882 5881 5881 5882 5881 5881 5881 5881 5881 5881
5888 5885 5883 5882 5880 5879 5879 5878 5878 5877 5877 5877 5877 5877 5877 5876 5876 5875 5875 5875 5874 5875 5875 5875 5876 5876 5877 5877 5878 5879 5879 5879 5879 5880 5879 5879 5879 5879 5879 5878 5878 5878 5878
5887 5885 5883 5881 5880 5879 5879 5878 5878 5878 5877 5877 5877 5876 5876 5876 5875 5875 5874 5874 5874 5874 5874 5874 5874 5874 5875 5875 5876 5876 5877 5877 5877 5877 5877 5876 5876 5876 5876 5875 5875 5874 5874
5887 5884 5882 5881 5880 5879 5879 5878 5878 5877 5877 5877 5876 5876 5875 5875 5874 5874 5874 5873 5873 5873 5873 5872 5873 5873 5873 5873 5873 5874 5874 5873 5873 5873 5873 5874 5874 5873 5872 5872 5872 5871 5871
5886 5884 5882 5881 5880 5879 5878 5878 5877 5877 5877 5876 5876 5875 5874 5874 5873 5873 5872 5872 5871 5871 5871 5870 5870 5870 5870 5870 5870 5870 5870 5870 5870 5870 5870 5870 5870 5870 5869 5869 5868 5868 5867